Regional Weather Roundup
Issued by NWS

Home | Current Version | Previous Version | Text Only | Print | Product List | Glossary Off
Versions: 1 2 3 4 5 6 7 8 9 10 11 12 13 14 15 16 17 18 19 20 21 22 23 24 25 26 27 28 29 30 31 32 33 34 35 36 37 38 39 40 41 42 43 44 45 46 47 48 49 50

000
ASUS43 KDMX 200206
RWRIA

WEATHER ROUNDUP FOR IOWA
NATIONAL WEATHER SERVICE DES MOINES IA
800 PM CST THU JAN 19 2017

NOTE: "FAIR" INDICATES FEW OR NO CLOUDS BELOW 12,000 FEET WITH NO
SIGNIFICANT WEATHER AND/OR OBSTRUCTIONS TO VISIBILITY.

* - THESE STATIONS ARE NOT NWS STATIONS...THUS NOT UNDER NWS
QUALITY CONTROL.  THEY ALSO DO NOT REPORT WEATHER SUCH
AS PRECIPITATION OR FOG.

IAZ001>003-012>014-020>022-031>034-043>046-200300-
   NORTHWEST IOWA

CITY           SKY/WX    TMP DP  RH WIND       PRES   REMARKS
CARROLL *      FOG       36  36 100 SE3       29.67F VSB 1/4
CHEROKEE *     CLOUDY    36  36 100 CALM      29.67F FOG
DENISON *      FOG       37  37 100 SE3       29.65S VSB 1/2
LE MARS *      CLOUDY    39  39 100 S5        29.66F FOG
ORANGE CITY *  FOG       37  37 100 E5        29.65F VSB 1/4 WCI  34
SHELDON *      MIX PCPN  36  36 100 SE7       29.64F VSB 1/4 WCI  30
SIOUX CITY     FOG       39  38  96 SE7       29.65F VSB 1/2 WCI  34
SPENCER        FOG       35  35 100 E5        29.68S VSB 1/4 WCI  31
STORM LAKE *   FOG       36  36 100 SE7       29.67S VSB<1/4 WCI  30
$$

IAZ055>058-069>071-079>083-090>094-200300-
   SOUTHWEST IOWA

CITY           SKY/WX    TMP DP  RH WIND       PRES   REMARKS
ATLANTIC *     CLOUDY    39  39 100 E6        29.66F FOG     WCI  35
AUDUBON *      CLOUDY    37  36  93 CALM      29.67F FOG
CLARINDA *     FOG       41  41 100 CALM      29.68S VSB 1/2
COUNCIL BLFS * FOG       39  39 100 E5        29.66S VSB 1/4
CRESTON *      FOG       39  39 100 E5        29.68R VSB 1/4
HARLAN  *      FOG       39  39 100 CALM      29.70S VSB 3/4
LAMONI         FOG       41  40  96 E5        29.67R VSB 1/4
RED OAK *      FOG       41  41 100 CALM      29.66F VSB 1/2
SHENANDOAH *   FOG       39  39 100 CALM      29.67S VSB 1/4
$$

IAZ047>049-059>061-072>074-084-200300-
   CENTRAL IOWA

CITY           SKY/WX    TMP DP  RH WIND       PRES   REMARKS
AMES           FOG       36  36 100 CALM      29.70S VSB 1/2
ANKENY *       CLOUDY    36  36 100 CALM      29.70F FOG
BOONE *        FOG       36  36 100 SE7       29.68S VSB 1/4 WCI  30
CHARITON *     FOG       37  37 100 E7        29.67F VSB 1/4 WCI  32
DES MOINES     DRZL/FOG  38  37  97 E5        29.69S VSB 1/2 WCI  34
GRINNELL*      FOG       36  36  99 E8        29.70F VSB 1/2 WCI  30
KNOXVILLE *    FOG       37  37 100 VRB7      29.67F VSB 1/4 WCI  32
MARSHALLTOWN   FOG       35  35 100 E6        29.69F VSB 1/4 WCI  30
NEWTON *       CLOUDY    37  36  93 E8        29.69S FOG     WCI  31
PELLA *        FOG       37  37  99 E5        29.71S VSB 1/2 WCI  33
PERRY *        FOG       36  36  98 E5        29.69S VSB 1/2 WCI  32
$$

IAZ004>006-015-016-023>025-035-036-200300-
   NORTH CENTRAL IOWA

CITY           SKY/WX    TMP DP  RH WIND       PRES   REMARKS
ALGONA *       FOG       36  36 100 SE7       29.69S VSB 1/4 WCI  30
CLARION *      FOG       36  36 100 SE7       29.70S VSB 1/2 WCI  30
ESTHERVILLE    FOG       33  33 100 SE8       29.68F VSB 1/4 WCI  26
FORT DODGE *   CLOUDY    36  34  93 E6        29.69F VSB 1/2 WCI  31
MASON CITY     FOG       33  33 100 SE5       29.71F VSB 1/4 WCI  29
FOREST CITY *  FOG       34  34 100 SE6       29.70F VSB 1   WCI  29
WEBSTER CITY * FOG       36  36 100 SE6       29.68S VSB<1/4 WCI  31
IOWA FALLS *   FOG       36  35  96 SE7       29.71S VSB 1/2 WCI  30
$$

IAZ007>011-017>019-026>030-037>042-050>054-066-200300-
   NORTHEAST IOWA

CITY           SKY/WX    TMP DP  RH WIND       PRES   REMARKS
CEDAR RAPIDS   CLOUDY    36  36 100 E9        29.70F FOG     WCI  29
CHARLES CITY * CLOUDY    36  36 100 SE9       29.71F FOG     WCI  29
CLINTON *      LGT RAIN  37  36  96 E9        29.76F FOG     WCI  30
DECORAH *      CLOUDY    36  36 100 E8        29.72F FOG     WCI  29
DUBUQUE        MIX PCPN  36  35  96 E7        29.75S FOG     WCI  30
MONTICELLO *   CLOUDY    37  37 100 E10       29.73F FOG     WCI  30
OELWEIN *      CLOUDY    36  36 100 E10       29.71F FOG     WCI  28
WATERLOO       CLOUDY    36  35  96 SE9       29.71S FOG     WCI  29
$$

IAZ064-065-067-068-078-200300-
   EAST CENTRAL IOWA

CITY           SKY/WX    TMP DP  RH WIND       PRES   REMARKS
DAVENPORT      LGT RAIN  37  36  96 E9        29.74F FOG     WCI  30
IOWA CITY      CLOUDY    39  37  92 E8        29.73F WCI  33
MUSCATINE *    CLOUDY    39  37  93 E6        29.74F FOG     WCI  35
QUAD CITIES    CLOUDY    38  36  92 E9        29.73F FOG     WCI  31
$$

IAZ062-063-075>077-085>089-095>099-200300-
   SOUTHEAST IOWA

CITY           SKY/WX    TMP DP  RH WIND       PRES   REMARKS
BURLINGTON     CLOUDY    40  40 100 E7        29.71F FOG
FAIRFIELD *    FOG       39  39 100 E9        29.70S VSB 3/4 WCI  33
FORT MADISON * FOG       39  39 100 E5        29.72S VSB 1/4
KEOKUK *       FOG       41  41 100 E6        29.70F VSB 3/4
OSKALOOSA *    FOG       37  37  99 E8        29.70S VSB 1   WCI  31
OTTUMWA        FOG       38  38 100 E9        29.69S VSB 1/2 WCI  31
WASHINGTON *   FOG       39  39 100 E8        29.73S VSB 3/4 WCI  34
$$

ABBREVIATIONS USED IN REMARKS
   TC - TEMPERATURES IN CELSIUS
  WCI - WIND CHILL INDEX
   HX - HEAT INDEX
  VSB - VISIBILITY
$$




USA.gov is the U.S. government's official web portal to all federal, state and local government web resources and services.